User: anonymous
Location: Lamoine Observatory
(44.4551°N, 68.3470°W)
Time: 20:56:39
(UTC-04:00)
Language:

Cosmos 1674 Rocket - Orbit

View from above orbital plane
View from above orbital plane
View from above satellite
View from above satellite

Ground track
Ground track

The orbit data is extracted from the following two-line orbital elements,

1 15945U 85069B   14210.11753903  .00000313  00000-0  35177-4 0  7137
2 15945 082.5265 039.8975 0020964 156.4754 343.1722 14.83369578564739
Epoch (UTC): 29 July 2014 02:49:15
Eccentricity: 0.0020964
inclination: 82.5265°
perigee height: 604 km
apogee height: 633 km
right ascension of ascending node: 39.8975°
argument of perigee: 156.4754°
revolutions per day: 14.83369578
mean anomaly at epoch: 343.1722°
orbit number at epoch: 56473

The dashed part of the orbit path shows where the satellite is in the earth's shadow,  

DLR